RAPIDEYE 2

Satellite information

Favourite Embed

Satellite Type and Status

PAYLOADIN ORBIT

Key statistics

Satellite RAPIDEYE 2 at a glance.

Uptime

6095

Days in orbit

Revolutions

≈ 15.0

Per day

Orbit

SSO

Sun Synchronous Orbit

Inclination

97.5

Latest

Satellite identification and parameters

Extended collection of information and parameters for RAPIDEYE 2.

Object identification

Identified? True

Debris? False

Object name: RAPIDEYE 2

International designator: 2008-040A

Object number (NORAD): 33312

Object ID (CCSDS): 33312

Country: GERMANY (GER)

Current information (Y/N): Y

RCS size: MEDIUM

Orbital parameters

Period: 95.786 minutes

Inclination: 97.469 deg

SMA: 6934.724 km

Apoapsis: 569.821 km

Periapsis: 543.358 km

RAAN: 165.3921 deg

Eccentricy: 0.001908

Argument of periapsis: 166.0292 deg

Mean anomaly: 194.1466 deg

Mean motion: 15.03346021 rev/day

Mean motion (dot): 0.00003353 rev/day2

B* drag term: 0.00025037 1/REarth

Two-line elements (TLE)

Creation date: May 6, 2025, 3:54 a.m.

Reference frame: TEME

Reference center: EARTH

Epoch: May 5, 2025, 8:45 p.m. UTC

TLE line 0: 0 RAPIDEYE 2

TLE line 1: 1 33312U 08040A 25125.86459776 .00003353 00000-0 25037-3 0 9995

TLE line 2: 2 33312 97.4690 165.3921 0019080 166.0292 194.1466 15.03346021904739

Live tracking on map

Real-time ground track for satellite RAPIDEYE 2.

In-orbit conjunctions

There are no conjunctions computed for RAPIDEYE 2, at the moment. Check back to stay up to date, as we update our databases every day.

Go to all conjunctions

Associated space launch

German Earth observation satellites

RAPIDEYE 2 was lifted into orbit during the mission ‘Dnepr | RapidEye 1 to 5’, on board a Dnepr space rocket.

The launch took place on Aug. 29, 2008, 7:15 a.m. from 109/95.

For more information about the launch, click the button.

Launch to space Dnepr | RapidEye 1 to 5
Dnepr | RapidEye 1 to 5

Agency: N/A

Status: Launch Successful

Launch date: Aug. 29, 2008, 7:15 a.m. UTC

Rocket: Dnepr

Launch pad: 109/95

Location: Baikonur Cosmodrome, Republic of Kazakhstan

...

Latest news about this satellite

There are no fresh news available about this satellite. Check back as we update our databases every day.


Newsletter sign-up

Weekly statistics, charts and insights to help you stay on top of the space industry.